Weather History for Livingston, MT

Change the Weather History Date:

Sunday, March 3, 2013

  Actual Average Record
Temperature  
Mean Temperature 34 °F 32 °F  
Max Temperature 46 °F 44 °F 64 °F (1994)
Min Temperature 21 °F 21 °F -17 °F (1976)
Degree Days  
Heating Degree Days 32 33  
Month to date heating degree days 99  
Since 1 July heating degree days 5447  
Cooling Degree Days 0 0  
Month to date cooling degree days 0  
Year to date cooling degree days 0  
Moisture  
Dew Point 23 °F    
Average Humidity 67    
Maximum Humidity 88    
Minimum Humidity 37    
Precipitation  
Precipitation 0.04 in 0.02 in 0.18 in (2009)
Month to date precipitation 0.06  
Year to date precipitation 1.05  
Sea Level Pressure  
Sea Level Pressure 29.75 in    
Wind  
Wind Speed 25 mph (West)    
Max Wind Speed 44 mph    
Max Gust Speed 55 mph    
Visibility 6 miles    
Events Fog , Rain , Snow    
T = Trace of Precipitation, MM = Missing Value Source: NWS Daily Summary

Daily Weather History Graph

Daily Weather History Graph

Search for Another Location

Airport:

Trip Planner

Search our weather history database for the weather conditions in past years. The results will help you decide how hot, cold, wet, or windy it might be!

Date:

Astronomy

Mar. 03, 2013 Rise Set
Actual Time 6:56 AM MST 6:11 PM MST
Civil Twilight 6:26 AM MST 6:41 PM MST
Nautical Twilight 5:52 AM MST 7:15 PM MST
Astronomical Twilight 5:17 AM MST 7:50 PM MST
Moon 12:13 AM MST (3/3) 9:53 AM MST (3/3)
Length of Visible Light 12h 15m
Length of Day
11h 15m
Waning Gibbous, 63% of the Moon is Illuminated
Mar 3
Waning Gibbous
Mar 4
Last Quarter
Mar 11
New
Mar 19
First Quarter
Mar 27
Full

Hourly Weather History & Observations

Time (MST) Temp. Windchill Dew Point Humidity Pressure Visibility Wind Dir Wind Speed Gust Speed Precip Events Conditions
12:53 AM 46.0 °F 36.9 °F 27.0 °F 47% 29.78 in 10.0 mi SW 28.8 mph 46.0 mph N/A   Clear
1:53 AM 46.9 °F - 27.0 °F 46% 29.76 in 10.0 mi SSW 29.9 mph 40.3 mph N/A   Overcast
2:53 AM 46.9 °F - 28.0 °F 48% 29.73 in 10.0 mi SW 31.1 mph 44.9 mph N/A   Overcast
3:53 AM 46.9 °F - 28.0 °F 48% 29.70 in 10.0 mi SW 25.3 mph 40.3 mph N/A   Overcast
4:53 AM 46.0 °F 36.7 °F 28.0 °F 50% 29.70 in 10.0 mi SW 29.9 mph 41.4 mph N/A   Overcast
5:53 AM 45.0 °F 36.2 °F 28.0 °F 52% 29.68 in 10.0 mi SW 24.2 mph 32.2 mph N/A   Mostly Cloudy
6:53 AM 45.0 °F 35.1 °F 28.0 °F 52% 29.66 in 10.0 mi SSW 31.1 mph 38.0 mph N/A   Scattered Clouds
7:53 AM 46.0 °F 36.9 °F 28.0 °F 50% 29.65 in 10.0 mi SSW 28.8 mph 38.0 mph N/A   Overcast
8:53 AM 46.0 °F 37.8 °F 28.0 °F 50% 29.62 in 10.0 mi SSW 23.0 mph 29.9 mph N/A   Mostly Cloudy
9:53 AM 45.0 °F 37.9 °F 30.0 °F 56% 29.63 in 10.0 mi West 16.1 mph - N/A   Overcast
10:53 AM 43.0 °F 36.4 °F 32.0 °F 65% 29.61 in 10.0 mi NW 12.7 mph - N/A   Overcast
11:53 AM 46.0 °F 39.9 °F 32.0 °F 58% 29.56 in 10.0 mi NW 13.8 mph - N/A   Overcast
12:53 PM 44.1 °F 37.7 °F 34.0 °F 68% 29.52 in 10.0 mi NW 12.7 mph 21.9 mph 0.00 in Rain Light Rain
1:19 PM 32.0 °F 16.0 °F 26.6 °F 80% 29.60 in 1.5 mi NNW 39.1 mph 54.1 mph 0.00 in Snow Light Snow
1:21 PM 32.0 °F 16.2 °F 26.6 °F 80% 29.60 in 1.0 mi NNW 38.0 mph 54.1 mph 0.00 in Snow Light Snow
1:24 PM 30.2 °F 12.7 °F 26.6 °F 86% 29.59 in 0.5 mi NNW 43.7 mph 52.9 mph 0.02 in Fog , Snow Snow
1:34 PM 30.2 °F 13.9 °F 26.6 °F 86% 29.60 in 0.2 mi NNW 36.8 mph 51.8 mph 0.02 in Fog , Snow Snow
1:53 PM 28.0 °F 10.7 °F 24.1 °F 85% 29.68 in 0.2 mi NNW 38.0 mph 55.2 mph 0.02 in Fog , Snow Snow
2:27 PM 28.4 °F 14.7 °F 24.8 °F 86% 29.70 in 0.2 mi NW 21.9 mph 31.1 mph 0.01 in Fog , Snow Heavy Snow
2:40 PM 28.4 °F 15.4 °F 24.8 °F 86% 29.70 in 0.8 mi NNW 19.6 mph 28.8 mph 0.01 in Snow Light Snow
2:48 PM 28.4 °F 15.1 °F 24.8 °F 86% 29.72 in 0.8 mi NW 20.7 mph 26.5 mph 0.01 in Snow Light Snow
2:53 PM 28.0 °F 15.3 °F 25.0 °F 88% 29.75 in 0.5 mi NW 18.4 mph - 0.01 in Fog , Snow Snow
3:24 PM 28.4 °F 16.6 °F 24.8 °F 86% 29.73 in 0.5 mi West 16.1 mph - 0.01 in Fog , Snow Snow
3:40 PM 28.4 °F 17.5 °F 24.8 °F 86% 29.74 in 0.8 mi WSW 13.8 mph 24.2 mph 0.01 in Snow Light Snow
3:43 PM 28.4 °F 16.6 °F 24.8 °F 86% 29.74 in 1.5 mi SW 16.1 mph - 0.01 in Snow Light Snow
3:45 PM 28.4 °F 16.2 °F 24.8 °F 86% 29.74 in 2.0 mi SW 17.3 mph - 0.01 in Snow Light Snow
3:53 PM 30.0 °F 18.3 °F 23.0 °F 75% 29.76 in 9.0 mi SW 17.3 mph - 0.01 in   Overcast
4:53 PM 33.1 °F 20.3 °F 16.0 °F 50% 29.76 in 10.0 mi WSW 24.2 mph 31.1 mph N/A   Partly Cloudy
5:53 PM 30.9 °F 17.2 °F 7.0 °F 37% 29.80 in 10.0 mi West 25.3 mph - N/A   Clear
6:53 PM 28.9 °F 16.9 °F 8.1 °F 41% 29.84 in 10.0 mi West 17.3 mph 26.5 mph N/A   Clear
7:53 PM 28.0 °F 18.6 °F 10.9 °F 49% 29.88 in 10.0 mi WSW 10.4 mph - N/A   Overcast
8:53 PM 28.9 °F 16.5 °F 12.0 °F 49% 29.90 in 10.0 mi WNW 18.4 mph 27.6 mph N/A   Overcast
9:27 PM 24.8 °F 11.1 °F 17.6 °F 74% 29.89 in 10.0 mi NNW 18.4 mph 31.1 mph N/A   Overcast
9:53 PM 23.0 °F 8.0 °F 16.0 °F 74% 29.98 in 3.0 mi NW 20.7 mph 31.1 mph 0.00 in Snow Light Snow
10:36 PM 21.2 °F 5.2 °F 15.8 °F 80% 29.92 in 2.0 mi WNW 21.9 mph 29.9 mph 0.00 in Snow Light Snow
10:45 PM 21.2 °F 6.4 °F 17.6 °F 86% 29.92 in 1.8 mi WNW 18.4 mph 28.8 mph 0.00 in Snow Light Snow
10:53 PM 23.0 °F 6.9 °F 16.0 °F 74% 29.99 in 3.0 mi NW 24.2 mph 29.9 mph 0.00 in Snow Light Snow
11:19 PM 24.8 °F 10.7 °F 10.4 °F 54% 29.93 in 10.0 mi NW 19.6 mph 29.9 mph 0.00 in   Overcast
11:53 PM 23.0 °F 8.3 °F 10.9 °F 60% 30.01 in 10.0 mi NNW 19.6 mph 25.3 mph 0.00 in   Overcast